Location: Alsip
(41.6689°N, 87.7387°W)
Time: 10:32:16
(UTC+00:00)

GEOS 3 Rocket - Pass Details

Date: 27 October 2020
Orbit: 770 x 850 km, 115.0° (Epoch: 25 November)

Event Time Altitude Azimuth Distance (km) Brightness Sun altitude
Exits shadow 00:33:13 36° 97° (E) 1,306 4.1 -19.4°
Maximum altitude 00:34:59 50° 47° (NE) 1,063 3.9 -19.7°
Drops below altitude 10° 00:40:09 10° 334° (NNW) 2,473 6.5 -20.7°
Sets 00:42:33 0° 329° (NNW) 3,416 7.3 -21.1°
